Regional Weather Roundup
Issued by NWS Upton, NY

Current Version | Previous Version | Graphics & Text | Print | Product List | Glossary Off
Versions: 1 2 3 4 5 6 7 8 9 10 11 12 13 14 15 16 17 18 19 20 21 22 23 24 25 26 27 28 29 30 31 32 33 34 35 36 37 38 39 40 41 42 43 44 45 46 47 48 49 50
000 ASUS41 KOKX 290805 RWROKX REGIONAL WEATHER ROUNDUP NATIONAL WEATHER SERVICE NEW YORK NY 300 AM EST THU JAN 29 2015 NOTE: "FAIR" INDICATES FEW OR NO CLOUDS BELOW 12,000 FEET WITH NO SIGNIFICANT WEATHER AND/OR OBSTRUCTIONS TO VISIBILITY. NYZ071-072-176-178-NJZ106-104-290900- NEW YORK CITY METRO AREA CITY SKY/WX TMP DP RH WIND PRES REMARKS CENTRAL PARK CLEAR 21 2 43 VRB5 30.32R WCI 15 LAGUARDIA APRT CLEAR 22 7 52 N6 30.31R WCI 14 KENNEDY INTL CLEAR 21 2 43 N9 30.31R WCI 11 NEWARK/LIBERTY CLEAR 18 3 52 N3 30.32R BRNX BOT. GARD N/A N/A N/A N/A NW1 30.33R TETERBORO CLEAR 20 0 41 CALM 30.32R $$ NYZ177-179-078>081-290900- LONG ISLAND NEW YORK CITY SKY/WX TMP DP RH WIND PRES REMARKS FARMINGDALE CLEAR 20 2 45 CALM 30.29R ISLIP CLEAR 19 3 49 N12 30.26S WCI 7 SHIRLEY CLEAR 20 4 50 N9 30.28S WCI 9 WESTHAMPTON CLEAR 7 -2 66 N6 30.29S WCI -3 MONTAUK POINT N/A 24 9 52 N8 30.28S WCI 15 $$ NYZ052-065-067-290900- HUDSON VALLEY CITY SKY/WX TMP DP RH WIND PRES REMARKS WHITE PLAINS PTCLDY 17 -2 43 N13 30.26R WCI 4 NEWBURGH CLEAR 5 -2 72 CALM 30.30R MONTGOMERY CLEAR -1 -6 79 CALM 30.30R POUGHKEEPSIE CLEAR 1 -5 75 SW3 30.33R ALBANY FAIR 1 -5 75 CALM 30.34F $$ NJZ001-105-106-008-010-013-015-019>022-104-290900- NEW JERSEY CITY SKY/WX TMP DP RH WIND PRES REMARKS NEWARK/LIBERTY CLEAR 18 3 52 N3 30.32R TETERBORO CLEAR 20 0 41 CALM 30.32R CALDWELL PTCLDY 14 2 58 CALM 30.32R MORRISTOWN CLEAR 10 3 72 CALM 30.31R SOMERVILLE CLEAR 8 0 69 CALM 30.30R SUSSEX PTCLDY 1 -5 75 CALM 30.30R ANDOVER N/A 1 -2 87 CALM 30.30R TRENTON PTCLDY 18 2 49 NW6 30.30R WCI 10 MILLVILLE CLEAR 15 8 73 CALM 30.30F ATLANTIC CITY CLEAR 17 4 56 N3 30.31R WRIGHTSTOWN PTCLDY 18 2 51 NW5 30.28S WCI 11 TOMS RIVER CLEAR 3 3 100 CALM 30.31S BELMAR PTCLDY 16 -2 45 NW7 30.29R WCI 6 $$ PAZ047>061-062-071-290900- EASTERN PENNSYLVANIA CITY SKY/WX TMP DP RH WIND PRES REMARKS PHILADELPHIA PTCLDY 24 3 40 N7 30.32S WCI 16 ALLENTOWN PTCLDY 19 3 49 W5 30.29F WCI 12 SCRANTON PTCLDY 9 2 73 E5 30.28S WCI 1 $$ CTZ002-004>006-009-010-012-RIZ004-006-007-MAZ004-011-015-290900- SOUTHERN NEW ENGLAND IN CT CITY SKY/WX TMP DP RH WIND PRES REMARKS BRADLEY INTL PTCLDY 9 -4 55 N3 30.28S HARTFORD PTCLDY 5 2 87 CALM 30.31S DANBURY PTCLDY 5 -3 69 CALM 30.29R WTRBRY/OXFORD PTCLDY 12 -4 48 N6 30.24S WCI 3 BRIDGEPORT CLEAR 17 1 49 N3 30.29F MERIDEN PTCLDY 5 -1 76 CALM 30.31R NEW HAVEN CLEAR 16 2 54 N8 30.28F WCI 5 CHESTER FAIR 18 0 45 N10 30.26S WCI 6 GROTON CLEAR 13 -2 51 N9 30.28R WCI 1 WILLIMANTIC CLEAR -2 -6 83 CALM 30.29R IN RI CITY SKY/WX TMP DP RH WIND PRES REMARKS PROVIDENCE PTCLDY 7 -1 70 CALM 30.28R BLOCK ISLAND CLEAR 21 5 49 N7 30.25R WCI 13 WESTERLY PTCLDY 8 -2 63 N5 30.28S WCI 0 IN MA CITY SKY/WX TMP DP RH WIND PRES REMARKS BOSTON PTCLDY 15 -2 46 NW7 30.28R WCI 5 WORCESTER PTCLDY 11 -7 44 NW6 30.19S WCI 1 WESTFIELD PTCLDY -1 -6 79 CALM 30.29R PROVINCETOWN MOCLDY 28 19 69 N15G21 30.25R WCI 17 NANTUCKET CLOUDY 27 20 75 NW15 30.21R WCI 15 $$ ANZ330-335-338-340-345-350-353-355-290900- COASTAL MARINE OBSERVATIONS STATION/POSITION TIME SKY/WX TEMP WIND PRES VSBY WAVE AIR SEA DIR/SP/G HT/PER (UTC) (F) (DEG/KT/KT) (MB) (MI) (FT/S) NY HARB ENTRANCE 0800 27 39 360/ 17/ 19 1025.3 3/11 4S FIRE IS 0800 37 N/A 2/13 20S FIRE ISLAND 0700 42 1025.2 4/ 5 23SW MTP 0800 N/A 3/11 HUDSON CANYON NOT AVBL EXECUTION ROCKS 0800 22 33 350/ 6/ 8 N/A WESTERN LI SOUND 0800 23 10/ 8/ 12 N/A 0 CENTRAL LI SOUND 0700 22 35 360/ 12/ 16 N/A 1/ 2 EASTERN LI SOUND NOT AVBL ROBBINS REEF 0800 22 360/ 10/ 12 1025.4 $$ >>>>>>>>>>>>>>>>>>>>>>>>>>>> KEY <<<<<<<<<<<<<<<<<<<<<<<<<<< > < > SKY/WX - SKY CONDITION/PRESENT WEATHER < > TMP - TEMPERATURE IN FAHRENHEIT < > DP - DEWPOINT IN FAHRENHEIT < > RH - RELATIVE HUMIDITY IN PERCENT < > WIND - DIRECTION AND SPEED IN MPH < > PRES - MEAN SEA LEVEL PRESSURE IN INCHES OF HG < > WCI - WIND CHILL INDEX < > VSB - VISIBILITY IN MILES < > HX - HEAT INDEX < > TC - TEMPERATURE IN CELSIUS < > VRB - VARIABLE WIND DIRECTION < > < >>>>>>>>>>>>>>>>>>>>>>>>>>>> KEY <<<<<<<<<<<<<<<<<<<<<<<<<<<

USA.gov is the U.S. government's official web portal to all federal, state and local government web resources and services.